Location: ??
(35.3149°N, 139.6204°E)
Time: 10:10:04
(UTC+00:00)

ADEOS II - Pass Details

Date: 03 August 2024
Orbit: 795 x 798 km, 98.7° (Epoch: 09 September)

Event Time Altitude Azimuth Distance (km) Brightness Sun altitude
Rises 18:18:06 0° 353° (N) 3,308 5.7 -17.6°
Reaches altitude 10° 18:21:13 10° 334° (NNW) 2,373 4.7 -17.1°
Maximum altitude 18:24:26 17° 296° (WNW) 1,936 3.8 -16.6°
Enters shadow 18:25:41 16° 279° (W) 2,006 3.8 -16.3°
